Location: Elmsmere
(40.9284°N, 73.8207°W)
Time: 21:36:47
(UTC+00:00)

Tianhe-1 - Visible Passes

Search period start: 12 June 2021 00:00
Search period end: 22 June 2021 00:00
Orbit: 375 x 387 km, 41.5° (Epoch: 12 June)

Date Brightness Start Highest point End Pass type
(mag) Time Alt. Az. Time Alt. Az. Time Alt. Az.
19 Jun 2.4 08:24:17 13° SSW 08:26:27 27° SSE 08:29:12 10° E visible
20 Jun 3.2 07:26:01 16° SE 07:26:01 16° SE 07:27:47 10° ESE visible
21 Jun 1.6 07:59:50 25° SSW 08:01:12 41° SSE 08:04:12 10° E visible
